Weather History for KWMC - January, 2014

Change the Weather History Date:

Monday, January 6, 2014

  Actual Average Record
Temperature  
Mean Temperature 25 °F 29 °F  
Max Temperature 38 °F 41 °F 58 °F (1948)
Min Temperature 11 °F 18 °F -22 °F (1890)
Degree Days  
Heating Degree Days 40 36  
Month to date heating degree days 219 216  
Since 1 July heating degree days 3207 2889  
Cooling Degree Days 0 0  
Month to date cooling degree days 0 0  
Year to date cooling degree days 0 0  
Moisture  
Dew Point 16 °F    
Average Humidity 66    
Maximum Humidity 92    
Minimum Humidity 40    
Precipitation  
Precipitation 0.00 in 0.03 in 0.32 in (1909)
Month to date precipitation 0.00 0.19  
Year to date precipitation 0.00 0.19  
Snow  
Snow 0.00 in 0.10 in 2.40 in (1888)
Month to date snowfall 0.0 0.8  
Since 1 July snowfall 16.5 9.6  
Snow Depth 1.00 in    
Sea Level Pressure  
Sea Level Pressure 30.44 in    
Wind  
Wind Speed 4 mph (ENE)    
Max Wind Speed 12 mph    
Max Gust Speed 15 mph    
Visibility 10 miles    
Events      
T = Trace of Precipitation, MM = Missing Value Source: NWS Daily Summary

Daily Weather History Graph

Daily Weather History Graph

Search for Another Location

Airport or City:

Trip Planner

Search our weather history database for the weather conditions in past years. The results will help you decide how hot, cold, wet, or windy it might be!

Date:

Astronomy

Jan. 06, 2014 Rise Set
Actual Time 7:15 AM PST 4:38 PM PST
Civil Twilight 6:45 AM PST 5:09 PM PST
Nautical Twilight 6:10 AM PST 5:43 PM PST
Astronomical Twilight 5:37 AM PST 6:16 PM PST
Moon 10:31 AM PST (1/6) 11:20 PM PST (1/6)
Length of Visible Light 10h 24m
Length of Day
9h 22m
Waxing Crescent, 36% of the Moon is Illuminated
Jan 6
Waxing Crescent
Jan 7
First Quarter
Jan 15
Full
Jan 23
Last Quarter
Jan 30
New

Hourly Weather History & Observations

Time (PST) Temp. Windchill Dew Point Humidity Pressure Visibility Wind Dir Wind Speed Gust Speed Precip Events Conditions
12:56 AM 18.0 °F 12.7 °F 14.0 °F 84% 30.53 in 10.0 mi SSE 3.5 mph - N/A   Clear
1:56 AM 19.0 °F 11.1 °F 12.9 °F 77% 30.53 in 10.0 mi East 5.8 mph - N/A   Clear
2:56 AM 21.0 °F 12.4 °F 12.0 °F 68% 30.53 in 10.0 mi East 6.9 mph - N/A   Clear
3:56 AM 12.9 °F 6.9 °F 9.0 °F 84% 30.54 in 10.0 mi East 3.5 mph - N/A   Clear
4:56 AM 14.0 °F 8.2 °F 10.9 °F 88% 30.55 in 10.0 mi ENE 3.5 mph - N/A   Clear
5:56 AM 12.9 °F 1.6 °F 9.0 °F 84% 30.56 in 10.0 mi ESE 8.1 mph - N/A   Clear
6:56 AM 21.0 °F 11.4 °F 10.9 °F 65% 30.52 in 10.0 mi ENE 8.1 mph - N/A   Clear
7:56 AM 21.0 °F 13.4 °F 12.0 °F 68% 30.54 in 10.0 mi East 5.8 mph - N/A   Clear
8:56 AM 24.1 °F 16.0 °F 12.9 °F 62% 30.55 in 10.0 mi East 6.9 mph - N/A   Clear
9:56 AM 30.0 °F 23.2 °F 15.1 °F 54% 30.52 in 10.0 mi NE 6.9 mph - N/A   Clear
10:56 AM 32.0 °F 24.2 °F 17.1 °F 54% 30.50 in 10.0 mi NNE 9.2 mph - N/A   Clear
11:56 AM 35.1 °F 30.1 °F 16.0 °F 46% 30.46 in 10.0 mi North 5.8 mph - N/A   Clear
12:56 PM 37.0 °F 33.3 °F 16.0 °F 42% 30.43 in 10.0 mi Variable 4.6 mph - N/A   Clear
1:56 PM 37.9 °F - 15.1 °F 39% 30.40 in 10.0 mi Calm Calm - N/A   Clear
2:56 PM 37.0 °F 34.5 °F 16.0 °F 42% 30.38 in 10.0 mi ENE 3.5 mph - N/A   Clear
3:56 PM 36.0 °F 33.3 °F 16.0 °F 44% 30.38 in 10.0 mi NNE 3.5 mph - N/A   Clear
4:56 PM 32.0 °F 25.6 °F 19.9 °F 61% 30.37 in 10.0 mi ENE 6.9 mph - N/A   Clear
5:56 PM 30.0 °F 25.2 °F 21.0 °F 69% 30.38 in 10.0 mi East 4.6 mph - N/A   Clear
6:56 PM 30.0 °F - 21.9 °F 72% 30.34 in 10.0 mi Calm Calm - N/A   Clear
7:56 PM 28.0 °F - 23.0 °F 81% 30.35 in 10.0 mi Calm Calm - N/A   Clear
8:56 PM 28.0 °F - 24.1 °F 85% 30.33 in 10.0 mi Calm Calm - N/A   Clear
9:56 PM 27.0 °F - 24.1 °F 89% 30.30 in 10.0 mi Calm Calm - N/A   Scattered Clouds
10:56 PM 27.0 °F 23.0 °F 23.0 °F 85% 30.30 in 10.0 mi East 3.5 mph - N/A   Mostly Cloudy
11:56 PM 26.1 °F - 24.1 °F 92% 30.27 in 10.0 mi Calm Calm - N/A   Partly Cloudy